User: anonymous   Login
Location: Unspecified
(0.0000°N, 0.0000°E)
Time: 21:30:01
(UTC+00:00)
Language:

OBJECT PA - Orbit

View from above orbital plane
View from above orbital plane
View from above satellite
View from above satellite

Ground track
Ground track

The orbit data is extracted from the following two-line orbital elements,

1 43552U 98067PA  18343.89323692  .00009976  00000-0  14003-3 0  9992
2 43552  51.6375 220.7983 0007400 145.2527 214.8950 15.57388144 23242
Epoch (UTC): 09 December 2018 21:26:15
Eccentricity: 0.0007400
inclination: 51.6375°
perigee height: 390 km
apogee height: 400 km
right ascension of ascending node: 220.7983°
argument of perigee: 145.2527°
revolutions per day: 15.57388144
mean anomaly at epoch: 214.8950°
orbit number at epoch: 2324

The dashed part of the orbit path shows where the satellite is in the earth's shadow,  

DLR